Location: Unspecified
(0.0000°N, 0.0000°E)
Time: 22:34:54
(UTC+00:00)

deb Explorer IX - Pass Details

Date: 25 June 2019
Orbit: 539 x 1112 km, 38.8° (Epoch: 21 July)

Event Time Altitude Azimuth Distance (km) Brightness Sun altitude
Rises 21:15:53 0° 298° (WNW) 3,627 ? -43.3°
Reaches altitude 10° 21:18:50 10° 292° (WNW) 2,590 ? -43.9°
Enters shadow 21:20:15 17° 286° (WNW) 2,111 ? -44.2°
